FW8891 Weather Reports


Display with metric or nautical units.
time (UTC)temp
F
wind
direction
speed
MPH
gust
MPH
rain 1hr
in
rain 24hr
in
rain mn
in
humidity
%
barometer
mb
20260507003559 84 185 5.0 8.0 0.00 0.00 0.00 23 1012.7
20260507003100 84 236 4.0 8.0 0.00 0.00 0.00 23 1012.7
20260507002558 84 181 6.0 9.0 0.00 0.00 0.00 23 1012.7
20260507002059 84 251 5.0 10.0 0.00 0.00 0.00 23 1012.7
20260507001604 84 180 4.0 10.0 0.00 0.00 0.00 23 1012.7
20260507001058 85 186 3.0 10.0 0.00 0.00 0.00 23 1012.7
20260507000559 85 92 5.0 10.0 0.00 0.00 0.00 23 1012.7
20260507000058 85 152 2.0 8.0 0.00 0.00 0.00 22 1012.7
20260506235559 85 257 4.0 8.0 0.00 0.00 0.00 23 1012.7
20260506235059 85 208 2.0 10.0 0.00 0.00 0.00 24 1012.7
20260506234558 85 229 4.0 10.0 0.00 0.00 0.00 23 1012.7
20260506234058 84 199 4.0 9.0 0.00 0.00 0.00 24 1012.7
20260506233559 85 154 6.0 9.0 0.00 0.00 0.00 23 1012.8
20260506233117 85 178 3.0 11.0 0.00 0.00 0.00 23 1012.9
20260506232558 85 181 3.0 11.0 0.00 0.00 0.00 23 1013.0
20260506232058 85 221 5.0 11.0 0.00 0.00 0.00 23 1013.0
20260506231559 85 179 2.0 9.0 0.00 0.00 0.00 24 1013.1
20260506231100 85 105 4.0 9.0 0.00 0.00 0.00 23 1013.2
20260506230558 85 211 3.0 8.0 0.00 0.00 0.00 24 1013.1
20260506230058 84 183 2.0 6.0 0.00 0.00 0.00 24 1013.2
20260506225558 84 167 2.0 6.0 0.00 0.00 0.00 23 1013.1
20260506225059 85 0 1.0 10.0 0.00 0.00 0.00 23 1013.2
20260506224559 85 273 1.0 11.0 0.00 0.00 0.00 23 1013.3
20260506224059 85 224 6.0 11.0 0.00 0.00 0.00 24 1013.4
20260506223601 84 122 3.0 8.0 0.00 0.00 0.00 24 1013.4
20260506223102 84 146 2.0 8.0 0.00 0.00 0.00 24 1013.5
20260506222559 84 145 4.0 9.0 0.00 0.00 0.00 25 1013.6
20260506222059 84 118 5.0 11.0 0.00 0.00 0.00 24 1013.6
20260506221600 85 210 6.0 11.0 0.00 0.00 0.00 24 1013.6
20260506221059 85 85 7.0 11.0 0.00 0.00 0.00 23 1013.6
20260506220559 84 200 4.0 11.0 0.00 0.00 0.00 24 1013.6
20260506220100 84 71 4.0 7.0 0.00 0.00 0.00 23 1013.8
20260506215559 85 160 3.0 7.0 0.00 0.00 0.00 24 1013.9
20260506215059 84 224 4.0 10.0 0.00 0.00 0.00 24 1013.9
20260506214558 84 124 3.0 10.0 0.00 0.00 0.00 25 1014.0
20260506214100 83 100 3.0 8.0 0.00 0.00 0.00 24 1014.1
20260506213559 84 132 3.0 8.0 0.00 0.00 0.00 24 1014.3
20260506213118 84 242 3.0 8.0 0.00 0.00 0.00 24 1014.4
20260506212559 83 237 4.0 8.0 0.00 0.00 0.00 25 1014.5
20260506212102 83 205 3.0 8.0 0.00 0.00 0.00 24 1014.6
20260506211559 83 162 4.0 11.0 0.00 0.00 0.00 24 1014.7
20260506211059 83 209 5.0 11.0 0.00 0.00 0.00 25 1014.8
20260506210558 83 112 1.0 9.0 0.00 0.00 0.00 24 1014.7
20260506210100 82 0 3.0 9.0 0.00 0.00 0.00 25 1014.9
20260506205558 82 97 4.0 9.0 0.00 0.00 0.00 26 1014.9
20260506205059 83 125 3.0 8.0 0.00 0.00 0.00 25 1015.1
20260506204558 83 112 1.0 11.0 0.00 0.00 0.00 24 1015.1
20260506204058 83 191 5.0 11.0 0.00 0.00 0.00 25 1015.2
20260506203602 83 172 6.0 11.0 0.00 0.00 0.00 25 1015.1
20260506203100 81 252 2.0 9.0 0.00 0.00 0.00 26 1015.2
20260506202558 83 72 3.0 6.0 0.00 0.00 0.00 24 1015.2
20260506202059 84 197 3.0 6.0 0.00 0.00 0.00 25 1015.3
20260506201558 83 279 2.0 7.0 0.00 0.00 0.00 24 1015.3
20260506201058 83 226 2.0 7.0 0.00 0.00 0.00 24 1015.4
20260506200558 83 306 1.0 5.0 0.00 0.00 0.00 24 1015.4
20260506200057 82 278 2.0 5.0 0.00 0.00 0.00 25 1015.4
20260506195559 82 350 1.0 5.0 0.00 0.00 0.00 24 1015.5
20260506195059 82 101 1.0 5.0 0.00 0.00 0.00 25 1015.5
20260506194633 82 340 2.0 7.0 0.00 0.00 0.00 24 1015.6
20260506194101 83 217 2.0 11.0 0.00 0.00 0.00 24 1015.7
20260506193559 82 241 5.0 11.0 0.00 0.00 0.00 25 1015.7
20260506193105 82 247 3.0 7.0 0.00 0.00 0.00 26 1015.8
20260506192559 81 63 1.0 8.0 0.00 0.00 0.00 25 1015.8
20260506192058 81 251 3.0 8.0 0.00 0.00 0.00 24 1015.8
20260506191558 81 283 4.0 8.0 0.00 0.00 0.00 24 1015.8
20260506191100 82 336 3.0 8.0 0.00 0.00 0.00 24 1015.8
20260506190559 82 259 2.0 5.0 0.00 0.00 0.00 24 1015.9
20260506185559 81 0 1.0 6.0 0.00 0.00 0.00 25 1015.9
20260506185059 81 91 0.0 6.0 0.00 0.00 0.00 25 1016.0
20260506184605 80 124 3.0 6.0 0.00 0.00 0.00 25 1016.1
20260506184059 80 259 1.0 7.0 0.00 0.00 0.00 25 1016.2
20260506183559 80 272 2.0 8.0 0.00 0.00 0.00 27 1016.2
20260506183059 80 237 3.0 10.0 0.00 0.00 0.00 25 1016.3
20260506182558 80 165 3.0 10.0 0.00 0.00 0.00 25 1016.4
20260506182058 79 197 3.0 8.0 0.00 0.00 0.00 26 1016.4
20260506181558 79 128 3.0 7.0 0.00 0.00 0.00 28 1016.4
20260506181101 79 184 3.0 7.0 0.00 0.00 0.00 27 1016.6
20260506180601 79 259 3.0 6.0 0.00 0.00 0.00 27 1016.6
20260506180107 79 30 0.0 6.0 0.00 0.00 0.00 26 1016.6
20260506175600 79 174 2.0 6.0 0.00 0.00 0.00 28 1016.6
20260506175103 79 177 3.0 6.0 0.00 0.00 0.00 28 1016.7
20260506174601 79 286 1.0 5.0 0.00 0.00 0.00 28 1016.7
20260506174102 79 187 3.0 5.0 0.00 0.00 0.00 29 1016.7
20260506173601 78 128 0.0 3.0 0.00 0.00 0.00 30 1016.7
20260506173059 78 340 1.0 6.0 0.00 0.00 0.00 28 1016.7
20260506172559 78 266 1.0 6.0 0.00 0.00 0.00 30 1016.8
20260506172100 78 273 1.0 5.0 0.00 0.00 0.00 30 1016.7
20260506171603 77 207 2.0 5.0 0.00 0.00 0.00 30 1016.7
20260506171100 76 188 1.0 5.0 0.00 0.00 0.00 32 1016.7
20260506170559 75 324 1.0 3.0 0.00 0.00 0.00 31 1016.6
20260506170113 75 257 1.0 3.0 0.00 0.00 0.00 32 1016.7
20260506165603 75 336 1.0 3.0 0.00 0.00 0.00 32 1016.6
20260506165101 75 325 0.0 3.0 0.00 0.00 0.00 32 1016.7
20260506164607 75 314 0.0 4.0 0.00 0.00 0.00 32 1016.7
20260506164101 75 87 1.0 4.0 0.00 0.00 0.00 31 1016.6
20260506163602 75 250 0.0 6.0 0.00 0.00 0.00 33 1016.6
20260506163124 74 304 1.0 6.0 0.00 0.00 0.00 33 1016.7
20260506162600 73 289 0.0 3.0 0.00 0.00 0.00 34 1016.6
20260506162100 73 51 0.0 3.0 0.00 0.00 0.00 33 1016.6
20260506161614 72 22 1.0 4.0 0.00 0.00 0.00 33 1016.6
20260506161100 73 302 1.0 4.0 0.00 0.00 0.00 33 1016.6
20260506160600 72 173 1.0 4.0 0.00 0.00 0.00 34 1016.5
20260506160059 73 107 1.0 2.0 0.00 0.00 0.00 33 1016.6
20260506155601 74 132 0.0 2.0 0.00 0.00 0.00 33 1016.6
20260506155101 73 0 0.0 2.0 0.00 0.00 0.00 33 1016.6
20260506154624 73 77 0.0 2.0 0.00 0.00 0.00 33 1016.5
20260506154104 72 0 0.0 2.0 0.00 0.00 0.00 34 1016.5
20260506153601 71 71 0.0 3.0 0.00 0.00 0.00 35 1016.6
20260506153107 70 0 1.0 4.0 0.00 0.00 0.00 36 1016.6
20260506152558 70 70 2.0 4.0 0.00 0.00 0.00 36 1016.6
20260506152100 70 65 1.0 3.0 0.00 0.00 0.00 36 1016.8
20260506151600 70 79 0.0 2.0 0.00 0.00 0.00 36 1016.7
20260506151058 70 0 0.0 2.0 0.00 0.00 0.00 37 1016.6
20260506150558 69 0 0.0 1.0 0.00 0.00 0.00 38 1016.6
20260506145558 69 0 0.0 1.0 0.00 0.00 0.00 37 1016.7
20260506145100 68 0 0.0 1.0 0.00 0.00 0.00 37 1016.7
20260506144557 69 1 0.0 0.0 0.00 0.00 0.00 37 1016.7
20260506144101 68 0 0.0 1.0 0.00 0.00 0.00 38 1016.6
20260506143559 66 0 0.0 1.0 0.00 0.00 0.00 40 1016.7
20260506143108 65 0 0.0 2.0 0.00 0.00 0.00 41 1016.7
20260506142602 64 337 0.0 2.0 0.00 0.00 0.00 42 1016.7
20260506142058 63 6 0.0 2.0 0.00 0.00 0.00 42 1016.7
20260506141558 63 323 0.0 2.0 0.00 0.00 0.00 42 1016.6
20260506141058 62 0 0.0 2.0 0.00 0.00 0.00 44 1016.5
20260506140558 61 317 0.0 2.0 0.00 0.00 0.00 44 1016.5
20260506135559 61 0 0.0 1.0 0.00 0.00 0.00 44 1016.4
20260506135058 61 0 0.0 1.0 0.00 0.00 0.00 45 1016.3
20260506134557 61 0 0.0 0.0 0.00 0.00 0.00 44 1016.1
20260506134058 62 0 0.0 0.0 0.00 0.00 0.00 44 1016.1
20260506133558 60 0 0.0 0.0 0.00 0.00 0.00 46 1016.1
20260506133102 59 0 0.0 0.0 0.00 0.00 0.00 47 1016.0
20260506132557 59 0 0.0 1.0 0.00 0.00 0.00 47 1015.9
20260506132101 58 0 0.0 1.0 0.00 0.00 0.00 48 1015.8
20260506131600 57 267 0.0 1.0 0.00 0.00 0.00 50 1015.7
20260506131059 56 0 0.0 0.0 0.00 0.00 0.00 51 1015.6
20260506130559 55 262 0.0 0.0 0.00 0.00 0.00 51 1015.6
20260506125558 56 0 0.0 1.0 0.00 0.00 0.00 50 1015.6
20260506125101 56 0 0.0 1.0 0.00 0.00 0.00 50 1015.5
20260506124600 56 257 0.0 2.0 0.00 0.00 0.00 49 1015.4
20260506124058 56 264 0.0 2.0 0.00 0.00 0.00 49 1015.4
20260506123558 57 293 1.0 3.0 0.00 0.00 0.00 49 1015.4
20260506122558 57 226 1.0 3.0 0.00 0.00 0.00 49 1015.2
20260506122057 57 255 0.0 3.0 0.00 0.00 0.00 49 1015.0
20260506121600 57 218 1.0 3.0 0.00 0.00 0.00 49 1015.0
20260506121058 57 238 1.0 3.0 0.00 0.00 0.00 49 1014.9
20260506120559 57 233 2.0 3.0 0.00 0.00 0.00 49 1014.9
20260506115559 56 236 1.0 5.0 0.00 0.00 0.00 48 1014.7
20260506115059 56 229 2.0 5.0 0.00 0.00 0.00 48 1014.7
20260506114606 56 226 2.0 4.0 0.00 0.00 0.00 48 1014.7
20260506114101 56 217 0.0 2.0 0.00 0.00 0.00 49 1014.7
20260506113558 57 0 0.0 1.0 0.00 0.00 0.00 49 1014.8
20260506113103 57 0 0.0 1.0 0.00 0.00 0.00 49 1014.7
20260506112559 56 0 0.0 3.0 0.00 0.00 0.00 49 1014.7
20260506112100 56 229 1.0 3.0 0.00 0.00 0.00 48 1014.6
20260506111559 56 153 0.0 2.0 0.00 0.00 0.00 48 1014.6
20260506111058 57 0 0.0 1.0 0.00 0.00 0.00 48 1014.6
20260506110558 57 0 0.0 1.0 0.00 0.00 0.00 47 1014.6
20260506110105 57 145 0.0 0.0 0.00 0.00 0.00 47 1014.5
20260506105558 58 0 0.0 0.0 0.00 0.00 0.00 46 1014.5
20260506105057 58 0 0.0 0.0 0.00 0.00 0.00 48 1014.5
20260506104557 58 0 0.0 0.0 0.00 0.00 0.00 47 1014.5
20260506104058 58 0 0.0 0.0 0.00 0.00 0.00 46 1014.4
20260506103558 59 0 0.0 1.0 0.00 0.00 0.00 46 1014.4
20260506103059 59 0 0.0 3.0 0.00 0.00 0.00 45 1014.4
20260506102559 60 0 0.0 5.0 0.00 0.00 0.00 44 1014.3
20260506102059 61 235 1.0 5.0 0.00 0.00 0.00 43 1014.4
20260506101606 61 249 2.0 4.0 0.00 0.00 0.00 44 1014.3
20260506101058 61 237 1.0 2.0 0.00 0.00 0.00 44 1014.3
20260506100558 61 285 1.0 4.0 0.00 0.00 0.00 43 1014.3
20260506100057 61 303 1.0 5.0 0.00 0.00 0.00 43 1014.2
20260506095559 61 300 2.0 5.0 0.00 0.00 0.00 43 1014.2
20260506095057 62 312 2.0 3.0 0.00 0.00 0.00 43 1014.2
20260506094622 62 311 2.0 5.0 0.00 0.00 0.00 43 1014.1
20260506094057 62 281 2.0 5.0 0.00 0.00 0.00 43 1014.1
20260506093558 62 300 1.0 6.0 0.00 0.00 0.00 42 1014.1
20260506093101 62 298 2.0 6.0 0.00 0.00 0.00 42 1014.1
20260506092559 62 311 3.0 6.0 0.00 0.00 0.00 42 1014.1
20260506092059 62 286 2.0 5.0 0.00 0.00 0.00 43 1014.1
20260506091558 62 307 2.0 5.0 0.00 0.00 0.00 43 1014.1
20260506091101 62 299 2.0 6.0 0.00 0.00 0.00 43 1014.1
20260506090558 62 312 2.0 6.0 0.00 0.00 0.00 43 1014.0
20260506090100 62 283 3.0 8.0 0.00 0.00 0.00 43 1013.9
20260506085558 62 321 4.0 8.0 0.00 0.00 0.00 43 1013.9
20260506085058 62 281 3.0 7.0 0.00 0.00 0.00 43 1013.9
20260506084602 63 268 2.0 7.0 0.00 0.00 0.00 43 1014.0
20260506084100 63 302 4.0 7.0 0.00 0.00 0.00 43 1013.9
20260506083558 63 296 4.0 6.0 0.00 0.00 0.00 43 1013.9
20260506083104 63 294 4.0 6.0 0.00 0.00 0.00 43 1014.0
20260506082600 63 285 3.0 8.0 0.00 0.00 0.00 43 1013.9
20260506082059 63 327 4.0 8.0 0.00 0.00 0.00 43 1013.9
20260506081601 64 295 4.0 7.0 0.00 0.00 0.00 43 1013.9
20260506081058 64 336 3.0 6.0 0.00 0.00 0.00 42 1014.0
20260506080559 64 280 3.0 6.0 0.00 0.00 0.00 42 1014.0
20260506073109 65 280 5.0 8.0 0.00 0.00 0.00 41 1013.9
20260506072558 65 253 4.0 8.0 0.00 0.00 0.00 41 1013.9
20260506072058 66 264 4.0 9.0 0.00 0.00 0.00 40 1013.8
20260506071601 66 273 4.0 9.0 0.00 0.00 0.00 40 1013.8
20260506071058 66 290 3.0 9.0 0.00 0.00 0.00 40 1013.7
20260506070558 66 261 5.0 9.0 0.00 0.00 0.00 40 1013.6
20260506070109 66 282 5.0 9.0 0.00 0.00 0.00 40 1013.5
20260506062058 67 256 4.0 9.0 0.00 0.00 0.00 39 1013.4
20260506061559 67 307 3.0 7.0 0.00 0.00 0.00 39 1013.4
20260506061058 67 271 4.0 7.0 0.00 0.00 0.00 39 1013.4
20260506060558 67 281 3.0 6.0 0.00 0.00 0.00 39 1013.4
20260506051058 67 233 2.0 5.0 0.00 0.00 0.00 38 1013.1
20260506050559 67 221 2.0 6.0 0.00 0.00 0.00 37 1013.1
20260506050104 67 247 2.0 6.0 0.00 0.00 0.00 37 1013.0
20260506045058 67 238 2.0 4.0 0.00 0.00 0.00 37 1013.0
20260506044604 68 232 2.0 4.0 0.00 0.00 0.00 37 1012.9
20260506044058 68 245 1.0 5.0 0.00 0.00 0.00 37 1012.8
20260506043558 68 172 2.0 5.0 0.00 0.00 0.00 37 1012.8
20260506043102 68 217 2.0 4.0 0.00 0.00 0.00 36 1012.7
20260506042558 68 243 1.0 5.0 0.00 0.00 0.00 36 1012.7
20260506042059 68 148 2.0 5.0 0.00 0.00 0.00 36 1012.7
20260506041607 68 162 2.0 5.0 0.00 0.00 0.00 36 1012.6
20260506041058 68 166 1.0 5.0 0.00 0.00 0.00 36 1012.5
20260506040558 68 229 2.0 6.0 0.00 0.00 0.00 35 1012.5
20260506040104 69 217 4.0 7.0 0.00 0.00 0.00 35 1012.4
20260506035600 69 176 3.0 7.0 0.00 0.00 0.00 35 1012.4
20260506035059 69 179 4.0 7.0 0.00 0.00 0.00 35 1012.3
20260506034614 69 162 4.0 8.0 0.00 0.00 0.00 35 1012.2
20260506034100 69 212 4.0 10.0 0.00 0.00 0.00 34 1012.2
20260506033559 69 193 5.0 10.0 0.00 0.00 0.00 34 1012.1
20260506033059 70 182 5.0 10.0 0.00 0.00 0.00 34 1012.0
20260506032559 70 226 5.0 10.0 0.00 0.00 0.00 34 1012.0
20260506032103 70 151 5.0 10.0 0.00 0.00 0.00 34 1011.9
20260506031605 70 220 6.0 10.0 0.00 0.00 0.00 34 1011.8
20260506031059 70 194 4.0 14.0 0.00 0.00 0.00 33 1011.8
20260506030600 70 247 5.0 14.0 0.00 0.00 0.00 33 1011.7
20260506025558 71 160 5.0 11.0 0.00 0.00 0.00 33 1011.5
20260506025058 71 170 7.0 12.0 0.00 0.00 0.00 32 1011.5
20260506024558 71 240 7.0 12.0 0.00 0.00 0.00 32 1011.4
20260506024058 71 141 6.0 12.0 0.00 0.00 0.00 32 1011.4
20260506023558 71 221 6.0 12.0 0.00 0.00 0.00 32 1011.3
20260506023100 71 232 7.0 12.0 0.00 0.00 0.00 32 1011.2
20260506022559 72 229 6.0 12.0 0.00 0.00 0.00 31 1011.2
20260506022058 72 150 8.0 12.0 0.00 0.00 0.00 31 1011.1
20260506021600 72 198 6.0 13.0 0.00 0.00 0.00 31 1011.1
20260506021058 72 214 8.0 13.0 0.00 0.00 0.00 31 1010.9
20260506020559 73 248 7.0 12.0 0.00 0.00 0.00 30 1010.9
20260506015559 73 266 5.0 12.0 0.00 0.00 0.00 30 1010.8
20260506015100 73 248 5.0 11.0 0.00 0.00 0.00 29 1010.7
20260506014558 74 227 6.0 11.0 0.00 0.00 0.00 29 1010.6
20260506014101 75 321 5.0 11.0 0.00 0.00 0.00 28 1010.5
20260506013558 75 141 5.0 10.0 0.00 0.00 0.00 28 1010.4
20260506013100 74 239 4.0 10.0 0.00 0.00 0.00 28 1010.4
20260506012559 75 266 5.0 10.0 0.00 0.00 0.00 28 1010.4
20260506012057 75 198 4.0 12.0 0.00 0.00 0.00 28 1010.3
20260506011608 76 248 7.0 17.0 0.00 0.00 0.00 28 1010.3
20260506011101 76 216 5.0 17.0 0.00 0.00 0.00 27 1010.3
20260506010603 76 136 6.0 12.0 0.00 0.00 0.00 27 1010.1
20260506010101 77 243 5.0 15.0 0.00 0.00 0.00 27 1010.1
20260506005558 76 198 7.0 15.0 0.00 0.00 0.00 27 1010.0
20260506005058 77 162 6.0 11.0 0.00 0.00 0.00 27 1010.0
20260506004600 77 238 5.0 12.0 0.00 0.00 0.00 27 1010.0
20260506004058 77 242 7.0 14.0 0.00 0.00 0.00 27 1010.0